User: anonymous   Login
Location: Unspecified
(0.0000°N, 0.0000°E)
Time: 00:28:39
(UTC+00:00)
Language:

Intelsat V F6 - Orbit

View from above orbital plane
View from above orbital plane
View from above satellite
View from above satellite

Ground track
Ground track

The orbit data is extracted from the following two-line orbital elements,

1 14077U 83047A   18203.42046892 -.00000113 +00000-0 +00000-0 0  9996
2 14077 015.1904 357.2863 0038057 266.4303 105.2686 00.99159660095469
Epoch (UTC): 22 July 2018 10:05:28
Eccentricity: 0.0038057
inclination: 15.1904°
perigee height: 35939 km
apogee height: 36262 km
right ascension of ascending node: 357.2863°
argument of perigee: 266.4303°
revolutions per day: 0.99159660
mean anomaly at epoch: 105.2686°
orbit number at epoch: 9546

The dashed part of the orbit path shows where the satellite is in the earth's shadow,  

DLR